Regional Weather Roundup
Issued by NWS Albany, NY

Home | Current Version | Previous Version | Text Only | Print | Product List | Glossary On
Versions: 1 2 3 4 5 6 7 8 9 10 11 12 13 14 15 16 17 18 19 20 21 22 23 24 25 26 27
000
ASUS41 KALY 141810
RWRALY

NEW YORK STATE HOURLY WEATHER ROUNDUP
NATIONAL WEATHER SERVICE ALBANY NY
100 PM EST THU DEC 14 2017

NOTE: "FAIR" INDICATES FEW OR NO CLOUDS BELOW 12,000 FEET WITH NO
SIGNIFICANT WEATHER AND/OR NO OBSTRUCTIONS TO VISIBILITY.

NYZ032-033-038>043-046>054-057>066-NYZ062>081-082-084-141900-
EAST


CITY           SKY/WX    TMP DP  RH WIND       PRES   REMARKS
ALBANY         MOSUNNY   21   2  43 NW16G32   29.79R WCI   7
GLENS FALLS    SUNNY     22  -3  33 W17G24    29.72R WCI   8
POUGHKEEPSIE   CLOUDY    28  14  55 N7        29.74R WCI  21
NEWBURGH       MOSUNNY   28  16  59 NW16      29.75R WCI  17
MONTGOMERY     PTSUNNY   28  11  48 N15G23    29.75R WCI  16
WHITE PLAINS   MOSUNNY   29  16  58 NW17G23   29.72R WCI  17
ISLIP          PTSUNNY   30  19  63 NW12      29.73R WCI  20
NEW YORK CITY  MOSUNNY   32  17  54 NW17      29.76R WCI  21
CENTRAL PARK   SUNNY     31  15  52 VRB7G22   29.78R WCI  24
$$

NYZ005>009-017-018-044>046-055-056-141900-
CENTRAL


CITY           SKY/WX    TMP DP  RH WIND       PRES   REMARKS
FULTON         LGT SNOW  17  10  74 W14G24    29.86S WCI   3
SYRACUSE       LGT SNOW  16   9  74 W17       29.87R WCI   0
ROME           PTSUNNY   12   4  70 W20       29.87R WCI  -6
ELMIRA         PTSUNNY   21   8  57 NW14G23   29.85R WCI   8
BINGHAMTON     CLOUDY    14   6  70 NW17G25   29.75R WCI  -3
MONTICELLO     FLURRIES  21   9  59 W18G30    29.73R WCI   6
$$

NYZ026>034-041>043-087-141900-
NORTH


CITY           SKY/WX    TMP DP  RH WIND       PRES   REMARKS
WATERTOWN      LGT SNOW   8   4  83 S6        29.87S VSB 3/4 WCI  -2
FORT DRUM      NOT AVBL
OGDENSBURG     FAIR      11  -3  51 SW9       29.83S WCI  -1
MASSENA        SUNNY      6  -5  60 W14       29.83R WCI -11
SARANAC LAKE   SUNNY      5  -5  63 SW9G18    29.63R WCI  -9
PLATTSBURGH    SUNNY     15  -7  37 W7        29.74R WCI   5
$$

NYZ001>004-010>016-019>021-085-141900-
WEST


CITY           SKY/WX    TMP DP  RH WIND       PRES   REMARKS
NIAGARA FALLS  MOSUNNY   18   5  57 W13       29.94R WCI   5
BUFFALO        PTSUNNY   17   5  59 W10       29.93R WCI   5
DUNKIRK        CLOUDY    19   9  65 W13       29.97S WCI   6
JAMESTOWN      LGT SNOW  18  10  73 NW8       29.88R WCI   7
WELLSVILLE     CLOUDY    17   4  56 NW16G24   29.81R WCI   2
ROCHESTER      FLURRIES  16   6  65 W15G25    29.92R WCI   1
PENN YAN       MIX PCPN  16   4  59 W15G23    29.87R WCI   1
$$

             KEY
       WCI = WIND CHILL INDEX
       VSB = VISIBILITY
       HX  = HEAT INDEX
$$




USA.gov is the U.S. government's official web portal to all federal, state and local government web resources and services.